Temperature
2 3 3 3 3 3 3 3 3 3 3 3 3 3 3 3 3 3 3 3 3 3 3 3 3 3 3 3 3 3 3 3 3 3 3 3 3 3 3 3 3 3 3
2 2 2 2 2 2 2 3 3 3 3 3 3 3 3 3 3 3 3 3 3 3 3 2 2 2 2 2 2 2 2 2 2 2 2 2 2 2 2 2 2 2 3
1 1 1 2 2 2 2 2 2 2 2 2 3 2 2 2 2 3 3 2 2 2 2 2 2 2 2 2 2 2 2 2 2 1 2 2 2 2 2 2 2 2 2
0 1 1 1 1 1 1 1 1 1 2 2 2 2 2 2 2 2 2 2 2 2 2 2 1 1 1 1 1 1 1 1 1 1 1 1 1 1 1 1 1 2 2
0 0 0 0 0 1 1 1 1 1 1 1 1 1 1 1 1 1 2 1 1 1 1 1 1 1 1 1 1 1 1 1 1 1 1 0 1 0 0 1 1 1 1
-0 -0 -0 0 0 0 0 0 0 0 1 1 1 1 1 1 1 1 1 1 1 1 0 1 0 0 -0 0 0 0 0 0 0 0 0 0 0 0 0 0 0 0 0
-1 -0 -0 -0 -0 -0 -0 -0 -0 -0 -0 -0 0 0 0 0 0 0 0 0 0 0 0 -0 -0 -0 -0 -0 -0 -0 -0 -0 -0 -0 -0 -0 -0 -0 -0 -0 -0 -0 -0
-1 -1 -1 -1 -1 -1 -1 -1 -1 -1 -1 -1 -1 -0 -0 -0 -0 -0 -0 -0 -1 -1 -1 -1 -1 -1 -1 -1 -1 -1 -1 -1 -1 -1 -1 -1 -1 -1 -1 -1 -1 -1 -1
-1 -2 -2 -1 -1 -1 -1 -1 -1 -1 -1 -1 -1 -1 -1 -1 -1 -1 -1 -1 -1 -1 -1 -1 -1 -1 -1 -1 -1 -1 -1 -1 -1 -1 -1 -1 -1 -1 -1 -1 -1 -1 -1
-2 -2 -2 -2 -2 -2 -2 -2 -2 -2 -2 -2 -2 -2 -2 -2 -2 -2 -2 -2 -2 -2 -2 -2 -2 -2 -1 -2 -1 -1 -1 -1 -1 -1 -1 -1 -1 -1 -1 -2 -2 -2 -2
-3 -3 -3 -3 -2 -2 -2 -2 -2 -3 -3 -3 -3 -3 -3 -3 -3 -3 -3 -2 -2 -2 -2 -2 -2 -2 -2 -2 -2 -2 -2 -2 -2 -2 -2 -2 -2 -2 -2 -2 -2 -2 -2
-3 -3 -3 -3 -3 -3 -3 -3 -3 -3 -3 -3 -4 -4 -4 -4 -3 -3 -3 -3 -3 -3 -3 -3 -3 -3 -3 -2 -2 -2 -2 -2 -2 -2 -2 -2 -2 -2 -2 -2 -2 -2 -2
-3 -3 -3 -3 -3 -3 -3 -3 -3 -4 -4 -4 -4 -4 -4 -4 -4 -4 -3 -3 -3 -3 -3 -3 -3 -3 -3 -3 -3 -3 -3 -3 -3 -3 -3 -3 -3 -3 -3 -3 -3 -3 -2
-4 -4 -4 -4 -4 -4 -4 -4 -4 -4 -4 -5 -5 -5 -5 -5 -4 -4 -4 -4 -3 -3 -4 -3 -3 -3 -3 -3 -3 -3 -3 -3 -3 -3 -3 -3 -3 -3 -3 -3 -3 -3 -3
-4 -4 -4 -4 -4 -4 -5 -5 -5 -5 -5 -5 -5 -5 -5 -5 -5 -5 -4 -4 -4 -4 -4 -4 -4 -4 -4 -4 -4 -4 -3 -3 -3 -4 -4 -4 -3 -3 -4 -4 -3 -3 -3
-5 -5 -5 -5 -5 -5 -5 -5 -5 -5 -5 -6 -6 -6 -6 -5 -5 -5 -5 -4 -4 -4 -4 -4 -4 -4 -4 -4 -4 -4 -4 -4 -4 -4 -4 -4 -4 -4 -4 -4 -4 -4 -3
-5 -5 -5 -6 -6 -6 -6 -6 -6 -6 -6 -6 -6 -6 -6 -6 -5 -5 -5 -5 -5 -4 -4 -4 -5 -5 -5 -5 -5 -5 -5 -5 -4 -4 -4 -4 -4 -4 -4 -4 -4 -4 -4
-5 -6 -6 -6 -6 -6 -6 -6 -6 -6 -6 -6 -6 -6 -6 -6 -5 -5 -5 -5 -5 -5 -5 -5 -5 -5 -5 -5 -5 -5 -5 -5 -5 -5 -5 -5 -5 -5 -5 -5 -4 -4 -4
-6 -6 -6 -6 -6 -6 -6 -6 -6 -6 -6 -6 -6 -6 -6 -6 -5 -5 -5 -5 -5 -5 -6 -6 -6 -5 -5 -5 -5 -5 -5 -5 -5 -5 -5 -5 -5 -5 -5 -5 -5 -4 -4
-6 -6 -6 -6 -6 -6 -6 -6 -6 -6 -6 -6 -6 -6 -6 -6 -6 -6 -6 -6 -6 -6 -6 -6 -6 -6 -6 -6 -6 -6 -6 -6 -5 -5 -5 -5 -5 -5 -5 -5 -5 -5 -5
-6 -6 -6 -6 -6 -6 -7 -7 -7 -7 -7 -7 -6 -6 -6 -6 -6 -6 -6 -6 -6 -6 -6 -6 -6 -6 -6 -6 -6 -6 -6 -6 -6 -6 -6 -5 -5 -5 -5 -5 -5 -5 -5
-6 -6 -6 -7 -7 -7 -7 -7 -7 -7 -7 -7 -6 -6 -6 -6 -6 -6 -7 -7 -7 -7 -7 -6 -6 -6 -6 -6 -6 -6 -6 -6 -6 -6 -6 -6 -5 -5 -5 -5 -5 -5 -5
-6 -6 -6 -7 -7 -7 -7 -7 -7 -7 -7 -7 -7 -7 -7 -7 -7 -7 -7 -7 -7 -7 -7 -7 -6 -6 -6 -6 -6 -6 -6 -6 -6 -6 -6 -6 -6 -5 -5 -5 -5 -5 -5
-7 -7 -7 -7 -7 -7 -7 -7 -7 -7 -7 -7 -7 -7 -7 -7 -7 -7 -7 -7 -7 -7 -7 -7 -7 -6 -6 -6 -6 -6 -6 -6 -6 -6 -6 -6 -6 -6 -5 -5 -5 -5 -5
-7 -7 -7 -7 -7 -7 -7 -7 -7 -7 -7 -7 -7 -7 -7 -7 -7 -7 -7 -7 -7 -7 -6 -6 -6 -6 -6 -6 -6 -6 -6 -6 -6 -6 -6 -6 -6 -6 -6 -5 -5 -5 -5
-7 -7 -7 -7 -7 -7 -7 -7 -7 -7 -7 -7 -7 -7 -7 -7 -7 -7 -7 -7 -7 -7 -6 -6 -6 -6 -6 -6 -6 -6 -6 -6 -6 -6 -6 -6 -6 -6 -6 -6 -5 -5 -5
Wind_Speed
4 4 3 3 2 1 1 2 2 2 2 3 2 3 3 4 4 4 4 4 4 4 4 4 4 4 3 3 3 3 3 4 6 6 3 3 4 5 5 5 7 6 7
4 4 4 3 2 2 2 2 2 2 2 2 2 2 3 3 4 4 4 4 4 5 4 4 4 4 4 3 3 4 4 4 5 7 5 4 5 4 4 5 5 6 7
3 3 3 4 3 3 2 2 2 2 2 2 1 2 3 3 3 3 4 4 4 4 4 4 4 4 4 3 4 4 4 4 4 5 6 4 4 4 4 5 5 5 6
4 3 3 3 3 3 2 2 2 1 1 1 1 2 2 2 2 3 3 3 3 3 3 4 4 4 5 4 4 4 3 3 4 4 5 4 4 4 3 4 5 4 5
4 3 3 3 3 3 3 2 2 1 1 0 0 1 1 2 2 2 2 2 2 2 2 3 4 4 6 5 5 4 3 3 4 4 5 5 4 3 4 3 5 5 5
3 4 4 3 3 3 3 2 2 1 1 1 1 1 1 2 3 3 2 1 2 2 2 2 2 3 4 5 6 6 5 5 5 5 5 5 5 5 4 4 4 5 5
3 3 3 3 3 3 3 3 2 2 2 2 2 2 2 2 3 3 3 2 1 2 2 2 3 3 3 3 4 5 5 6 7 6 6 6 6 5 5 5 5 5 5
3 3 3 3 3 3 3 3 3 2 2 2 2 2 2 3 4 3 3 2 1 1 1 2 2 3 3 3 3 3 3 4 5 4 4 5 5 5 5 5 5 5 4
4 4 3 3 3 3 3 2 2 2 2 2 2 2 2 3 4 5 4 1 1 2 2 2 2 2 4 5 3 3 3 3 4 5 6 5 6 6 5 3 3 3 4
4 4 3 3 2 2 2 2 2 1 1 1 2 2 2 2 4 5 5 1 1 2 2 2 3 4 5 5 3 2 3 4 4 4 4 5 4 5 5 3 3 4 4
4 3 3 3 3 3 2 2 2 2 2 2 2 2 2 3 4 5 5 2 1 2 2 2 2 4 5 6 5 3 4 4 3 3 3 2 2 2 2 2 2 3 3
3 3 3 3 3 3 3 3 2 2 2 2 3 3 2 3 4 4 6 5 4 2 2 2 2 5 6 6 5 4 6 5 3 2 2 2 2 2 3 3 2 2 3
3 3 3 3 3 3 2 3 3 2 2 2 2 3 3 3 4 6 7 7 6 3 2 3 4 5 6 5 5 6 5 3 2 2 2 3 3 2 2 2 2 2 2
4 3 3 3 3 3 3 3 2 2 2 2 2 3 3 3 3 4 4 4 5 4 3 3 5 5 4 4 4 4 3 2 2 2 2 3 2 2 2 2 2 2 2
4 3 3 3 2 3 3 3 2 2 2 2 2 2 2 3 5 7 5 4 4 3 3 2 2 2 2 3 3 3 3 3 3 2 2 2 3 2 2 2 1 2 2
3 3 3 2 2 2 2 3 4 4 5 5 4 3 3 4 7 8 8 7 7 6 4 3 2 2 2 2 3 3 3 3 3 2 2 2 3 3 2 2 2 2 2
3 3 3 2 2 2 2 2 3 4 5 5 6 6 5 6 7 7 7 7 6 6 4 3 3 3 2 2 2 3 3 3 3 3 2 2 3 3 3 2 2 2 2
3 3 3 2 2 2 2 2 2 2 3 3 5 6 6 7 7 7 7 6 4 5 3 3 3 3 3 3 3 3 3 3 3 3 2 2 2 2 2 2 2 2 3
3 2 2 2 2 2 2 2 2 2 2 3 3 4 6 6 7 7 6 4 3 4 4 3 3 3 3 3 3 3 3 3 3 3 3 3 2 2 2 2 2 3 3
2 3 3 2 2 2 2 2 1 2 2 2 3 3 4 4 4 4 4 3 3 3 4 4 3 3 3 3 3 3 3 3 3 3 3 3 2 2 2 3 3 3 3
2 3 3 2 2 1 1 2 2 2 2 2 2 3 5 3 3 3 3 3 3 3 4 4 4 4 3 3 3 3 3 3 2 3 3 2 2 2 2 2 2 2 3
2 2 2 2 1 1 2 1 1 1 2 2 3 3 5 3 3 3 3 3 3 3 3 3 4 4 3 3 3 3 3 3 3 3 3 3 2 2 2 2 2 2 3
1 2 2 2 1 2 2 2 1 1 2 2 2 2 3 3 3 3 3 3 3 3 3 3 4 4 4 4 3 3 3 3 3 3 3 2 2 2 2 2 2 2 3
1 1 1 2 2 1 1 2 2 2 2 2 2 2 2 2 3 3 3 3 3 4 4 4 4 5 5 5 4 4 4 4 4 3 2 2 2 2 2 1 1 2 2
1 1 1 1 1 1 1 2 2 2 2 2 2 2 3 3 3 3 3 3 4 4 4 4 4 5 5 5 5 5 5 5 4 3 2 1 1 1 1 1 1 2 2
1 1 1 1 1 1 1 1 2 2 2 2 2 2 3 3 3 3 3 3 3 3 4 4 5 6 6 5 6 6 5 5 5 4 2 1 1 1 1 1 1 2 2
Wind_Direction
7 1 352 341 327 317 295 290 284 276 258 242 239 251 248 242 222 213 216 215 222 233 237 234 239 239 238 240 240 244 251 248 263 279 281 291 290 289 291 285 285 282 282
2 357 350 340 335 326 309 301 291 278 268 255 241 256 251 249 231 215 222 223 223 228 231 235 243 249 248 249 248 250 255 253 257 274 285 284 282 278 278 279 287 285 281
357 351 346 340 337 323 311 316 313 296 278 261 236 259 257 251 248 231 224 222 227 231 231 235 240 242 250 253 256 254 257 263 262 266 277 283 283 282 288 288 280 279 285
349 346 343 337 334 336 339 332 321 304 290 251 228 258 263 262 255 244 236 222 224 231 235 239 241 238 243 246 255 253 258 267 268 267 276 284 288 286 293 292 296 291 290
348 345 334 332 341 354 355 346 337 332 320 296 240 265 270 267 254 246 239 236 226 238 248 250 255 255 260 261 263 252 248 254 258 263 270 279 284 293 289 287 291 295 289
334 329 330 340 355 1 356 355 354 356 356 42 11 313 295 296 297 302 306 247 235 234 249 261 266 261 268 275 279 278 265 255 253 254 260 267 276 280 283 286 291 297 292
320 326 335 343 354 354 354 9 13 9 23 31 14 9 351 337 327 333 330 320 269 257 263 275 284 280 282 273 283 290 290 284 266 251 252 262 270 273 276 279 282 285 282
334 335 336 348 354 352 6 10 8 20 27 22 19 19 13 349 347 347 346 352 346 322 296 284 283 290 286 283 282 285 285 288 283 274 256 263 270 270 263 264 270 281 279
346 345 344 351 358 2 0 351 351 14 16 7 7 20 19 359 353 349 350 351 354 330 312 303 296 299 299 298 286 283 294 302 303 283 273 276 286 292 292 288 289 287 284
340 338 340 349 350 342 337 341 355 5 358 357 11 21 14 359 351 350 347 353 352 334 333 331 321 322 320 316 310 300 299 301 306 309 303 295 296 301 302 286 275 276 281
339 343 353 358 351 347 2 12 13 7 8 19 20 12 6 351 349 351 350 353 341 328 327 336 333 331 326 323 322 313 307 311 310 308 308 309 309 305 299 287 268 256 266
353 360 359 360 357 0 14 16 19 20 27 24 17 6 1 353 352 353 353 350 345 334 322 324 325 331 329 326 324 325 323 322 320 316 317 315 311 302 295 289 277 261 257
6 4 360 4 7 8 17 18 20 22 25 16 9 1 359 359 357 357 355 349 343 340 323 327 332 333 334 333 336 334 330 331 334 330 318 308 306 302 304 306 308 293 291
2 2 1 9 12 15 18 21 23 16 10 2 360 357 352 352 353 353 349 349 350 346 341 347 348 347 346 347 346 339 340 342 337 315 306 304 313 321 323 318 314 321 314
358 358 359 7 12 15 18 18 12 10 3 351 347 346 347 343 341 344 344 343 339 342 350 358 2 357 5 3 355 348 349 348 342 334 326 326 328 326 323 328 325 330 317
351 351 353 358 5 11 13 10 15 8 8 8 359 349 345 344 345 348 349 351 357 2 11 7 5 6 356 347 343 343 348 347 341 336 331 323 321 326 331 340 334 323 317
347 342 346 353 1 359 359 2 357 2 6 6 5 1 356 350 350 348 350 355 2 13 20 4 356 350 344 341 339 340 340 338 337 337 330 325 324 327 327 327 328 323 317
341 344 348 342 346 341 342 343 344 346 350 353 356 358 357 356 355 356 359 5 8 13 8 358 349 345 342 341 343 341 339 342 341 338 336 333 329 323 322 324 324 326 324
340 343 347 341 339 336 336 336 339 342 344 343 347 350 355 357 3 10 12 16 10 3 357 350 346 340 337 339 342 340 335 334 334 332 333 332 330 330 334 331 331 337 334
333 341 347 341 337 345 351 351 347 343 342 342 340 336 345 358 5 2 4 7 5 355 348 342 339 335 335 337 338 335 332 332 330 324 323 327 330 333 329 332 338 338 335
332 335 342 342 339 342 343 340 336 336 338 337 330 329 343 355 352 347 351 354 351 344 340 337 335 333 333 334 331 327 323 321 321 320 323 324 326 327 325 328 333 334 330
324 326 329 329 332 332 330 326 325 326 327 329 330 333 342 352 345 341 342 342 341 336 336 331 328 330 334 332 325 315 312 314 318 318 319 322 323 324 326 331 337 337 335
326 330 333 333 327 319 329 325 321 322 321 323 329 340 342 342 338 335 334 332 332 335 338 335 332 335 338 334 326 312 299 296 300 302 304 306 310 318 323 324 335 340 337
334 327 321 320 321 317 319 322 325 325 329 332 337 334 330 329 328 328 328 327 332 335 337 332 325 323 324 327 323 315 308 307 303 287 276 284 294 305 315 327 332 333 332
325 318 315 310 310 312 317 322 329 336 334 329 327 326 326 327 323 321 322 325 325 323 322 321 320 319 321 323 323 321 321 322 318 309 286 274 279 287 306 321 333 341 340
326 325 324 325 326 329 328 324 325 326 322 317 316 315 313 312 310 313 316 318 319 317 316 315 317 320 323 325 327 330 332 333 332 323 305 236 254 279 311 335 341 343 349
Height
1451 1450 1450 1450 1450 1450 1450 1450 1450 1451 1452 1453 1454 1455 1456 1456 1457 1458 1458 1459 1460 1460 1461 1461 1461 1462 1462 1463 1463 1463 1462 1462 1459 1457 1458 1458 1457 1456 1455 1455 1453 1451 1450
1449 1448 1448 1447 1447 1447 1447 1447 1447 1447 1448 1449 1450 1451 1452 1452 1453 1453 1454 1454 1455 1455 1456 1456 1457 1457 1457 1458 1458 1458 1458 1457 1456 1453 1452 1452 1452 1452 1451 1450 1448 1447 1445
1447 1446 1446 1445 1445 1444 1444 1444 1444 1444 1445 1446 1446 1447 1448 1448 1449 1449 1450 1450 1450 1451 1451 1452 1452 1452 1452 1453 1453 1452 1452 1452 1452 1450 1448 1448 1447 1447 1446 1445 1443 1442 1440
1446 1444 1444 1443 1442 1442 1441 1441 1441 1441 1441 1442 1442 1443 1444 1444 1445 1445 1445 1446 1446 1446 1447 1447 1448 1448 1448 1448 1448 1447 1447 1447 1447 1446 1444 1443 1442 1442 1441 1440 1438 1437 1436
1445 1443 1442 1441 1440 1440 1439 1439 1438 1438 1438 1438 1439 1439 1440 1440 1441 1441 1441 1441 1441 1441 1442 1443 1443 1443 1443 1444 1443 1443 1442 1442 1442 1441 1440 1439 1438 1437 1437 1436 1434 1433 1431
1443 1442 1441 1440 1439 1438 1437 1436 1435 1435 1435 1435 1435 1436 1436 1437 1437 1437 1437 1437 1437 1437 1437 1438 1438 1439 1439 1439 1439 1439 1439 1438 1437 1436 1435 1434 1433 1434 1433 1432 1431 1429 1426
1442 1440 1439 1438 1437 1436 1435 1434 1433 1433 1433 1433 1433 1433 1433 1433 1434 1434 1433 1433 1433 1434 1434 1434 1434 1434 1435 1435 1434 1434 1434 1434 1433 1432 1431 1430 1430 1429 1429 1427 1426 1425 1423
1440 1438 1437 1437 1436 1435 1433 1432 1432 1431 1431 1431 1431 1431 1431 1431 1431 1430 1430 1430 1430 1430 1431 1431 1431 1430 1431 1431 1430 1429 1429 1428 1428 1427 1427 1426 1426 1425 1425 1424 1422 1421 1419
1438 1437 1436 1435 1434 1433 1432 1431 1431 1430 1429 1429 1429 1428 1428 1428 1429 1428 1428 1427 1427 1427 1428 1428 1428 1427 1427 1427 1426 1425 1424 1424 1423 1423 1422 1422 1421 1421 1421 1420 1418 1417 1415
1437 1435 1434 1433 1433 1431 1430 1430 1429 1429 1428 1428 1427 1427 1427 1427 1427 1426 1426 1425 1425 1425 1425 1425 1425 1424 1424 1424 1423 1422 1420 1420 1419 1419 1418 1417 1417 1417 1417 1416 1415 1414 1412
1435 1434 1433 1432 1431 1430 1429 1429 1428 1427 1427 1426 1426 1425 1425 1425 1425 1425 1424 1424 1423 1423 1422 1422 1422 1422 1421 1420 1420 1418 1417 1417 1416 1415 1414 1413 1413 1413 1413 1412 1412 1411 1410
1434 1433 1432 1431 1430 1429 1428 1427 1427 1426 1426 1425 1425 1424 1424 1424 1423 1423 1423 1422 1422 1421 1420 1420 1419 1419 1418 1417 1416 1415 1414 1414 1413 1412 1411 1410 1410 1410 1409 1409 1409 1408 1407
1433 1432 1431 1430 1429 1428 1427 1426 1426 1425 1425 1424 1424 1423 1422 1422 1422 1421 1421 1421 1421 1420 1419 1418 1417 1417 1416 1415 1414 1413 1412 1411 1410 1409 1408 1407 1407 1407 1407 1406 1406 1405 1404
1432 1431 1430 1429 1428 1427 1426 1426 1425 1425 1424 1423 1423 1422 1421 1421 1421 1420 1420 1419 1419 1418 1417 1416 1415 1414 1413 1412 1412 1411 1410 1409 1408 1407 1406 1406 1405 1405 1404 1404 1403 1402 1401
1431 1430 1430 1429 1428 1427 1426 1425 1425 1425 1424 1424 1423 1422 1421 1420 1420 1420 1419 1418 1417 1416 1415 1414 1413 1412 1411 1410 1410 1409 1408 1407 1406 1405 1404 1404 1403 1403 1402 1401 1401 1400 1399
1431 1430 1429 1428 1427 1426 1425 1425 1425 1424 1424 1423 1423 1422 1421 1421 1420 1419 1418 1417 1416 1415 1414 1412 1411 1410 1410 1409 1408 1407 1406 1405 1404 1403 1403 1402 1401 1401 1400 1400 1399 1398 1397
1430 1429 1428 1427 1426 1426 1425 1424 1423 1423 1423 1423 1422 1421 1420 1419 1419 1418 1417 1416 1415 1414 1413 1411 1410 1410 1409 1408 1407 1406 1405 1404 1403 1402 1401 1401 1400 1400 1399 1398 1397 1396 1395
1429 1428 1427 1426 1426 1425 1424 1424 1423 1422 1421 1421 1421 1420 1419 1418 1418 1417 1416 1415 1413 1413 1412 1411 1410 1409 1408 1407 1406 1405 1404 1403 1402 1401 1400 1400 1399 1398 1398 1397 1396 1395 1394
1428 1427 1426 1425 1425 1424 1424 1423 1422 1422 1421 1420 1419 1419 1418 1418 1417 1416 1415 1414 1412 1412 1411 1410 1409 1408 1407 1406 1405 1404 1403 1402 1401 1400 1399 1398 1398 1397 1396 1396 1395 1394 1393
1427 1426 1425 1425 1424 1423 1423 1422 1422 1421 1420 1419 1419 1418 1417 1417 1415 1415 1414 1413 1412 1411 1410 1409 1408 1407 1406 1405 1404 1403 1402 1401 1400 1399 1398 1397 1396 1396 1395 1394 1394 1393 1392
1426 1425 1425 1424 1423 1423 1422 1422 1421 1420 1419 1419 1418 1418 1417 1416 1415 1414 1413 1412 1411 1410 1409 1408 1407 1406 1405 1404 1402 1401 1400 1399 1398 1397 1397 1396 1395 1395 1394 1394 1393 1392 1391
1425 1424 1424 1423 1422 1422 1421 1421 1420 1419 1419 1418 1417 1417 1416 1416 1415 1414 1413 1412 1411 1409 1408 1407 1406 1405 1404 1402 1401 1400 1399 1398 1397 1396 1395 1395 1394 1394 1393 1392 1392 1391 1390
1424 1424 1423 1422 1421 1421 1421 1420 1419 1419 1418 1417 1417 1416 1415 1415 1414 1413 1412 1411 1410 1409 1407 1406 1405 1403 1402 1401 1400 1399 1397 1396 1396 1395 1394 1393 1393 1392 1392 1391 1391 1390 1390
1424 1423 1422 1421 1421 1420 1420 1419 1419 1418 1417 1417 1416 1415 1415 1414 1413 1412 1411 1410 1409 1408 1406 1405 1404 1402 1401 1399 1398 1397 1396 1395 1394 1393 1393 1392 1392 1391 1391 1391 1390 1390 1389
1422 1422 1421 1420 1420 1419 1419 1418 1418 1417 1416 1416 1415 1414 1414 1413 1412 1411 1410 1409 1408 1407 1405 1404 1402 1401 1400 1398 1397 1395 1394 1393 1392 1392 1391 1391 1391 1390 1390 1390 1389 1389 1388
1421 1421 1420 1420 1419 1419 1418 1417 1417 1416 1415 1415 1414 1413 1412 1412 1411 1410 1409 1408 1407 1405 1404 1403 1401 1400 1398 1397 1395 1394 1393 1392 1391 1390 1390 1390 1389 1389 1389 1389 1389 1388 1388